Location: Unspecified
(0.0000°N, 0.0000°E)
Time: 15:42:41
(UTC+00:00)

deb Delta 126 - Pass Details

Date: 16 February 2026
Orbit: 1137 x 1258 km, 102.0° (Epoch: 9 March)

Event Time Altitude Azimuth Distance (km) Brightness Sun altitude
Rises 03:38:52 0° 175° (S) 4,183 ? -37.7°
Reaches altitude 10° 03:41:34 10° 180° (S) 3,224 ? -37.1°
Enters shadow 03:44:27 25° 190° (S) 2,284 ? -36.4°
